Weather History for KWVL - January, 2013

Change the Weather History Date:

Friday, January 18, 2013

  Actual Average Record
Temperature  
Mean Temperature 6 °F -  
Max Temperature 12 °F 27 °F 57 °F (1990)
Min Temperature 0 °F 4 °F -21 °F (1971)
Degree Days  
Heating Degree Days 59    
Moisture  
Dew Point -9 °F    
Average Humidity 48    
Maximum Humidity 61    
Minimum Humidity 34    
Precipitation  
Precipitation 0.00 in - - ()
Sea Level Pressure  
Sea Level Pressure 30.22 in    
Wind  
Wind Speed 7 mph (NW)    
Max Wind Speed 20 mph    
Max Gust Speed 25 mph    
Visibility 10 miles    
Events      
Averages and records for this station are not official NWS values.
T = Trace of Precipitation, MM = Missing Value Source: NWS Daily Summary

Daily Weather History Graph

Daily Weather History Graph

Search for Another Location

Airport or City:

Trip Planner

Search our weather history database for the weather conditions in past years. The results will help you decide how hot, cold, wet, or windy it might be!

Date:

Astronomy

Jan. 18, 2013 Rise Set
Actual Time 7:09 AM EST 4:28 PM EST
Civil Twilight 6:37 AM EST 5:01 PM EST
Nautical Twilight 6:01 AM EST 5:36 PM EST
Astronomical Twilight 5:27 AM EST 6:11 PM EST
Moon 10:26 AM EST (1/18) No Moon Set
Length of Visible Light 10h 23m
Length of Day
9h 19m
Waxing Crescent, 47% of the Moon is Illuminated
Jan 18
Waxing Crescent
Jan 18
First Quarter
Jan 26
Full
Feb 3
Last Quarter
Feb 10
New

Hourly Weather History & Observations

Time (EST) Temp. Windchill Dew Point Humidity Pressure Visibility Wind Dir Wind Speed Gust Speed Precip Events Conditions
12:15 AM 8.6 °F -4.7 °F -5.8 °F 52% 30.07 in 10.0 mi NNE 9.2 mph - N/A   Clear
12:35 AM 8.6 °F -3.7 °F -5.8 °F 52% 30.08 in 10.0 mi North 8.1 mph - N/A   Clear
12:55 AM 8.6 °F -4.7 °F -5.8 °F 52% 30.09 in 10.0 mi North 9.2 mph - N/A   Clear
1:15 AM 8.6 °F -3.7 °F -5.8 °F 52% 30.12 in 10.0 mi NNE 8.1 mph - N/A   Clear
1:35 AM 8.6 °F -1.3 °F -7.6 °F 48% 30.11 in 10.0 mi NNE 5.8 mph - N/A   Clear
1:55 AM 8.6 °F -2.6 °F -7.6 °F 48% 30.09 in 10.0 mi NNE 6.9 mph - N/A   Clear
2:15 AM 8.6 °F -5.5 °F -7.6 °F 48% 30.09 in 10.0 mi NNE 10.4 mph - N/A   Clear
2:35 AM 6.8 °F -5.9 °F -7.6 °F 52% 30.09 in 10.0 mi NNE 8.1 mph - N/A   Clear
2:55 AM 6.8 °F -4.8 °F -7.6 °F 52% 30.12 in 10.0 mi North 6.9 mph - N/A   Clear
3:15 AM 6.8 °F -3.5 °F -7.6 °F 52% 30.11 in 10.0 mi NNE 5.8 mph - N/A   Clear
3:35 AM 6.8 °F -0.1 °F -7.6 °F 52% 30.12 in 10.0 mi NNE 3.5 mph - N/A   Clear
3:55 AM 6.8 °F -4.8 °F -7.6 °F 52% 30.11 in 10.0 mi North 6.9 mph - N/A   Clear
4:15 AM 6.8 °F -5.9 °F -9.4 °F 48% 30.10 in 10.0 mi NNE 8.1 mph - N/A   Clear
4:35 AM 5.0 °F -8.1 °F -7.6 °F 56% 30.10 in 10.0 mi North 8.1 mph - N/A   Clear
4:55 AM 5.0 °F -5.6 °F -9.4 °F 52% 30.13 in 10.0 mi North 5.8 mph - N/A   Clear
5:15 AM 3.2 °F -7.8 °F -9.4 °F 56% 30.12 in 10.0 mi North 5.8 mph - N/A   Clear
5:35 AM 3.2 °F -6.2 °F -9.4 °F 56% 30.14 in 10.0 mi NNE 4.6 mph - N/A   Clear
5:55 AM 3.2 °F -6.2 °F -9.4 °F 56% 30.14 in 10.0 mi NNE 4.6 mph - N/A   Clear
6:15 AM 1.4 °F -8.3 °F -11.2 °F 56% 30.15 in 10.0 mi NNE 4.6 mph - N/A   Clear
6:35 AM -0.4 °F -12.0 °F -11.2 °F 60% 30.16 in 10.0 mi North 5.8 mph - N/A   Clear
6:55 AM -0.4 °F -12.0 °F -13.0 °F 55% 30.16 in 10.0 mi North 5.8 mph - N/A   Clear
7:15 AM -0.4 °F -12.0 °F -11.2 °F 60% 30.18 in 10.0 mi North 5.8 mph - N/A   Clear
7:35 AM -0.4 °F -12.0 °F -11.2 °F 60% 30.19 in 10.0 mi North 5.8 mph - N/A   Clear
7:55 AM -0.4 °F -8.3 °F -11.2 °F 60% 30.21 in 10.0 mi North 3.5 mph - N/A   Clear
8:15 AM -0.4 °F -8.3 °F -11.2 °F 60% 30.22 in 10.0 mi North 3.5 mph - N/A   Clear
8:35 AM 1.4 °F -8.3 °F -11.2 °F 56% 30.22 in 10.0 mi North 4.6 mph - N/A   Clear
8:55 AM 1.4 °F -9.9 °F -11.2 °F 56% 30.23 in 10.0 mi North 5.8 mph - N/A   Clear
9:15 AM 3.2 °F -9.1 °F -9.4 °F 56% 30.24 in 10.0 mi NW 6.9 mph - N/A   Clear
9:35 AM 5.0 °F -10.0 °F -9.4 °F 52% 30.24 in 10.0 mi NW 10.4 mph - N/A   Clear
9:55 AM 5.0 °F -10.0 °F -9.4 °F 52% 30.25 in 10.0 mi WNW 10.4 mph - N/A   Clear
10:15 AM 6.8 °F -7.8 °F -11.2 °F 44% 30.24 in 10.0 mi NW 10.4 mph 16.1 mph N/A   Clear
10:35 AM 6.8 °F -3.5 °F -11.2 °F 44% 30.24 in 10.0 mi WNW 5.8 mph - N/A   Clear
10:55 AM 8.6 °F -4.7 °F -11.2 °F 40% 30.24 in 10.0 mi WNW 9.2 mph - N/A   Clear
11:15 AM 8.6 °F 2.0 °F -13.0 °F 37% 30.23 in 10.0 mi WNW 3.5 mph - N/A   Clear
11:35 AM 10.4 °F -0.4 °F -11.2 °F 37% 30.23 in 10.0 mi NNW 6.9 mph - N/A   Clear
11:55 AM 10.4 °F -3.3 °F -11.2 °F 37% 30.23 in 10.0 mi NW 10.4 mph 20.7 mph N/A   Clear
12:15 PM 10.4 °F -3.3 °F -11.2 °F 37% 30.23 in 10.0 mi WNW 10.4 mph 20.7 mph N/A   Clear
12:35 PM 10.4 °F -5.4 °F -9.4 °F 41% 30.23 in 10.0 mi NW 13.8 mph 19.6 mph N/A   Clear
12:55 PM 10.4 °F -3.3 °F -9.4 °F 41% 30.23 in 10.0 mi WNW 10.4 mph 21.9 mph N/A   Clear
1:15 PM 12.2 °F -1.8 °F -11.2 °F 34% 30.23 in 10.0 mi WNW 11.5 mph 23.0 mph N/A   Clear
1:35 PM 12.2 °F -3.1 °F -9.4 °F 38% 30.23 in 10.0 mi NW 13.8 mph 21.9 mph N/A   Clear
1:55 PM 12.2 °F -5.8 °F -9.4 °F 38% 30.23 in 10.0 mi NW 19.6 mph 25.3 mph N/A   Clear
2:15 PM 12.2 °F -2.5 °F -9.4 °F 38% 30.23 in 10.0 mi WNW 12.7 mph - N/A   Clear
2:35 PM 12.2 °F -1.8 °F -9.4 °F 38% 30.24 in 10.0 mi NW 11.5 mph - N/A   Clear
2:55 PM 12.2 °F 1.7 °F -9.4 °F 38% 30.25 in 10.0 mi NW 6.9 mph - N/A   Clear
3:15 PM 12.2 °F 4.3 °F -9.4 °F 38% 30.25 in 10.0 mi West 4.6 mph - N/A   Clear
3:35 PM 12.2 °F 6.1 °F -9.4 °F 38% 30.26 in 10.0 mi WSW 3.5 mph - N/A   Clear
3:55 PM 12.2 °F 1.7 °F -9.4 °F 38% 30.26 in 10.0 mi West 6.9 mph - N/A   Clear
4:15 PM 12.2 °F 4.3 °F -9.4 °F 38% 30.27 in 10.0 mi WSW 4.6 mph - N/A   Clear
4:35 PM 10.4 °F - -9.4 °F 41% 30.26 in 10.0 mi Calm Calm - N/A   Clear
4:55 PM 10.4 °F 4.0 °F -11.2 °F 37% 30.26 in 10.0 mi South 3.5 mph - N/A   Clear
5:15 PM 10.4 °F 4.0 °F -9.4 °F 41% 30.26 in 10.0 mi South 3.5 mph - N/A   Clear
5:35 PM 8.6 °F - -9.4 °F 44% 30.27 in 10.0 mi Calm Calm - N/A   Clear
5:55 PM 6.8 °F -0.1 °F -7.6 °F 52% 30.28 in 10.0 mi South 3.5 mph - N/A   Clear
6:15 PM 8.6 °F - -5.8 °F 52% 30.28 in 10.0 mi Calm Calm - N/A   Clear
6:35 PM 8.6 °F -1.3 °F -5.8 °F 52% 30.29 in 10.0 mi SSW 5.8 mph - N/A   Clear
6:55 PM 10.4 °F 2.2 °F -7.6 °F 44% 30.30 in 10.0 mi SW 4.6 mph - N/A   Clear
7:15 PM 8.6 °F 0.1 °F -9.4 °F 44% 30.30 in 10.0 mi SSW 4.6 mph - N/A   Clear
7:35 PM 8.6 °F 2.0 °F -9.4 °F 44% 30.30 in 10.0 mi WSW 3.5 mph - N/A   Clear
7:55 PM 6.8 °F - -7.6 °F 52% 30.30 in 10.0 mi Calm Calm - N/A   Clear
8:15 PM 6.8 °F -3.5 °F -7.6 °F 52% 30.31 in 10.0 mi SW 5.8 mph - N/A   Clear
8:35 PM 6.8 °F -3.5 °F -7.6 °F 52% 30.32 in 10.0 mi WSW 5.8 mph - N/A   Clear
8:55 PM 8.6 °F -4.7 °F -5.8 °F 52% 30.33 in 10.0 mi WSW 9.2 mph - N/A   Clear
9:15 PM 6.8 °F -3.5 °F -9.4 °F 48% 30.32 in 10.0 mi SW 5.8 mph - N/A   Clear
9:35 PM 6.8 °F -3.5 °F -5.8 °F 56% 30.32 in 10.0 mi SSW 5.8 mph - N/A   Clear
10:35 PM 6.8 °F -2.0 °F -9.4 °F 48% 30.31 in 10.0 mi SSW 4.6 mph - N/A   Clear
10:55 PM 5.0 °F -2.1 °F -7.6 °F 56% 30.31 in 10.0 mi SW 3.5 mph - N/A   Clear
11:15 PM 6.8 °F - -7.6 °F 52% 30.31 in 10.0 mi Calm Calm - N/A   Clear
11:35 PM 5.0 °F -2.1 °F -5.8 °F 61% 30.30 in 10.0 mi SW 3.5 mph - N/A   Clear
11:55 PM 5.0 °F - -7.6 °F 56% 30.29 in 10.0 mi Calm Calm - N/A   Partly Cloudy